This is the latest recevied weather packets stored in our database for station/object DB0ROB-10. If no packets are shown the sender has not sent any weather packets the latest 10 day(s).
| Time | Temp. | Humidity | Pressure | Rain* | Wind** | Luminosity | Snow |
|---|---|---|---|---|---|---|---|
| 1778259710 | 13.89° C | 57% | 1015.4 hPa | - | - | - | - |
| 1778258810 | 15° C | 54% | 1015.2 hPa | - | - | - | - |
| 1778257909 | 15.56° C | 50% | 1015.1 hPa | - | - | - | - |
| 1778257009 | 16.67° C | 48% | 1015.1 hPa | - | - | - | - |
| 1778256109 | 16.11° C | 51% | 1015.2 hPa | - | - | - | - |
| 1778255209 | 16.11° C | 50% | 1015.3 hPa | - | - | - | - |
| 1778254309 | 16.67° C | 48% | 1015.2 hPa | - | - | - | - |
| 1778253409 | 17.22° C | 48% | 1015.2 hPa | - | - | - | - |
| 1778252509 | 17.22° C | 47% | 1015.3 hPa | - | - | - | - |
| 1778250708 | 17.22° C | 47% | 1015.5 hPa | - | - | - | - |
| 1778249807 | 16.67° C | 49% | 1015.6 hPa | - | - | - | - |
| 1778248907 | 14.44° C | 55% | 1015.7 hPa | - | - | - | - |
| 1778248016 | 15.56° C | 52% | 1015.6 hPa | - | - | - | - |
| 1778247115 | 18.33° C | 43% | 1015.9 hPa | - | - | - | - |
| 1778246215 | 18.33° C | 44% | 1016 hPa | - | - | - | - |
| 1778245314 | 16.67° C | 50% | 1016 hPa | - | - | - | - |
| 1778244414 | 16.11° C | 52% | 1016.1 hPa | - | - | - | - |
| 1778243513 | 17.22° C | 48% | 1016.1 hPa | - | - | - | - |
| 1778242612 | 15° C | 55% | 1016.1 hPa | - | - | - | - |
| 1778241712 | 16.67° C | 48% | 1016 hPa | - | - | - | - |
| 1778240812 | 15.56° C | 55% | 1016.1 hPa | - | - | - | - |
| 1778239911 | 18.33° C | 46% | 1016.2 hPa | - | - | - | - |
| 1778239011 | 14.44° C | 58% | 1016.4 hPa | - | - | - | - |
| 1778238111 | 15° C | 57% | 1016.4 hPa | - | - | - | - |
| 1778237210 | 15° C | 58% | 1016.5 hPa | - | - | - | - |
* Rain since midnight (hover to see other rain measurements)
** Current wind speed in m/s (hover to see current wind gust speed)